Lid_Strength_Index
-0 -0 0 3 11 12 15 13 10 10 10 7 6 7 9 8 10 12 2 0 0 0 -0 -1 -1 -1 -1 -1 -2 -1 -2 -1 -1 -1 -1 -1 -1 -1 -1 -1 -1 -1 -1 -1 -2 -1 -1 -1 -1
-0 1 2 6 13 16 15 11 12 10 8 6 6 7 8 9 5 4 3 0 -0 -0 0 -0 -1 -1 -1 -1 -1 -1 -1 -1 -1 -1 -1 -1 -1 -1 -1 -1 -1 -2 -1 -1 -1 -1 -1 -1 -1
0 1 7 10 13 16 15 10 10 8 6 7 8 5 7 8 4 3 1 0 -0 0 -0 -0 -1 -1 -1 -1 -1 -1 -1 -1 -2 -1 -1 -1 -1 -1 -1 -1 -1 -1 -1 -1 -1 -1 -1 -1 -1
2 4 6 12 14 12 11 9 8 8 7 6 6 9 5 3 3 2 0 0 0 0 -0 -1 -1 -1 -1 -1 -1 -1 -2 -1 -2 -1 -1 -1 -1 -2 -1 -1 -1 -1 -1 -1 -1 -1 -1 -1 -1
3 6 12 13 13 11 9 8 7 9 8 7 6 9 7 3 1 1 1 0 0 0 -0 -0 -1 -1 -1 -1 -1 -1 -1 -1 -1 -1 -1 -1 -1 -1 -1 -1 -1 -1 -1 -1 -1 -1 -1 -1 -1
7 7 13 15 13 10 9 7 7 8 7 7 7 8 7 2 2 1 0 0 -0 0 0 -0 -1 -1 -1 -1 -1 -1 -1 -1 -1 -1 -1 -1 -1 -1 -1 -1 -1 -1 -1 -1 -1 -1 -1 -1 -1
9 10 12 13 13 11 9 6 8 8 8 8 6 9 6 4 2 1 1 0 -0 -0 0 0 -0 -1 -1 -1 -1 -1 -1 -1 -1 -1 -1 -1 -1 -1 -1 -1 -1 -1 -1 -1 -1 -1 -1 -1 -1
7 9 12 12 13 13 8 7 6 7 8 4 4 9 8 4 1 1 1 1 0 0 0 0 1 0 0 -0 -1 -1 -1 -1 -1 -1 -1 -1 -1 -1 -1 -1 -1 -1 -1 -1 -1 -1 -1 -1 -1
5 11 13 12 12 11 7 9 6 5 7 6 5 5 4 2 1 2 2 2 2 1 1 1 1 0 -0 -0 -1 -1 -1 -1 -1 -1 -1 -1 -1 -1 -1 -1 -1 -1 -1 -1 -1 -1 -1 -1 -1
8 11 10 8 8 9 8 8 7 8 8 8 6 4 3 3 3 3 3 3 3 2 2 1 1 1 0 -0 0 -0 -1 -1 -1 -1 -1 -1 -1 -0 -1 -1 -1 -1 -1 -1 -1 -1 -1 1 -2
8 10 8 8 7 7 8 8 6 8 10 7 8 6 4 4 3 3 3 3 3 2 1 1 1 0 0 -0 -0 -0 -0 -1 -1 -0 1 1 -0 -1 -1 -1 -0 -0 -1 -1 -1 -1 -1 0 -0
9 7 7 7 6 7 8 7 8 7 7 5 5 4 4 4 4 4 3 3 2 2 1 1 1 -0 -0 0 0 0 -0 0 0 -0 -0 0 -0 0 -0 0 -0 -1 -1 -1 0 -0 -0 0 0
8 8 7 6 6 7 6 8 8 8 5 4 4 4 4 4 4 3 2 2 2 2 1 1 1 1 0 0 1 0 0 0 0 0 0 -0 -0 1 0 -0 0 1 1 -0 -0 -0 -0 -0 0
7 7 7 7 7 7 9 8 8 7 5 5 5 5 4 4 4 3 3 3 2 2 2 2 1 1 1 2 1 1 0 -0 -0 0 0 -0 -0 -0 -0 -0 0 1 1 -1 -1 -1 -0 -0 -0
7 10 8 8 8 8 7 10 10 6 5 6 6 5 5 4 3 4 3 3 2 3 2 3 2 1 2 1 2 1 0 -0 0 0 -0 -0 -1 -1 -0 -0 1 1 1 2 0 -1 -0 -0 0
9 10 14 9 8 8 8 13 9 6 7 7 6 6 5 4 4 3 2 2 2 3 3 3 0 1 1 0 1 0 -0 0 -0 1 -0 -1 -0 -1 -1 -0 1 0 1 1 0 -0 0 0 1
11 14 13 11 8 9 10 13 9 6 7 7 7 6 5 5 4 3 3 2 3 3 2 3 1 1 0 0 -0 0 1 -0 -0 0 0 -0 -1 -1 -1 -1 0 -0 0 -0 -0 0 0 1 1
13 13 13 12 9 9 11 11 9 7 7 8 7 6 6 5 5 3 3 2 3 3 3 2 2 1 1 1 1 1 1 0 0 0 0 -0 -0 -1 -1 -1 -0 -0 0 1 0 0 1 1 1
10 11 11 10 8 10 11 11 10 8 8 8 7 7 6 5 4 3 2 2 3 3 3 3 1 1 2 1 1 2 1 1 0 0 -1 -1 -0 -1 -1 -1 -0 -0 0 1 1 1 1 1 0
10 11 12 10 8 10 11 12 10 9 8 8 7 7 6 6 5 4 3 3 3 4 3 3 1 1 1 2 1 1 1 0 0 -0 -1 -1 0 -0 -0 -0 -0 -0 0 0 0 1 1 1 1
11 11 11 11 9 10 11 13 12 9 8 7 7 6 6 6 5 4 4 3 3 3 3 3 2 1 1 1 1 1 0 0 1 0 0 0 0 -0 -0 -0 -1 -0 -0 0 0 0 1 2 1
13 8 9 10 12 15 10 16 13 11 10 9 8 7 6 6 5 4 4 3 3 3 2 2 1 1 1 1 1 1 2 2 1 1 0 -0 -1 -0 -0 0 -1 1 0 1 1 -0 1 1 2
10 8 9 10 12 13 13 15 12 11 12 10 8 7 6 5 5 5 4 3 2 2 2 1 1 1 1 1 1 2 2 1 1 0 0 0 -0 -0 -1 -0 2 2 2 2 1 1 1 1 1
7 9 11 13 13 16 13 13 13 14 11 10 8 7 6 5 5 4 3 3 3 2 2 1 1 1 1 1 1 1 2 2 1 1 1 1 0 1 -1 -1 1 2 1 1 1 1 1 1 1
9 12 16 17 17 17 14 14 12 9 9 8 8 7 6 5 5 5 4 4 3 3 2 2 2 2 1 1 1 1 1 1 1 1 1 1 1 1 0 -0 1 1 1 1 1 2 2 2 2
12 12 15 19 18 17 13 16 11 7 7 6 6 6 6 5 5 5 4 4 3 3 2 2 2 2 2 1 1 1 1 1 1 1 1 1 1 0 0 0 -0 0 1 2 3 4 3 3 2
12 12 11 15 17 16 15 13 10 8 8 7 7 7 6 6 5 5 4 3 3 3 2 2 2 2 1 1 1 1 1 1 1 1 0 0 0 0 0 0 1 2 3 4 5 5 4 2 2
11 10 14 16 18 18 15 14 13 10 9 8 8 7 6 5 5 4 4 4 3 2 2 2 2 2 2 1 1 1 1 1 0 0 1 0 0 0 1 2 4 4 5 6 6 6 3 2 2
13 14 15 14 15 16 17 15 11 9 8 8 7 7 6 6 5 4 4 3 3 2 2 2 2 2 2 1 1 1 1 1 0 1 0 0 0 1 2 5 6 7 7 7 6 4 3 3 3
11 13 14 15 17 16 16 14 10 9 7 7 7 6 5 5 5 4 4 3 3 3 2 2 2 2 2 1 1 1 1 1 1 1 0 0 1 3 5 7 8 8 8 8 6 4 4 3 3